STARLINK-2029, 48320

Orbit data source: Space-Track

STARLINK-2029, 48320 is a payload satellite owned by SpaceX/Seattle (US) in LEO that was launched on Thu, 29 Apr 2021 UTC via an FALCON 9 launch vehicle from the Air Force Eastern Test Range (AFETR). Payload-class satellites include a variety of spacecraft equipped with specific instruments for various scientific and technological missions. These include communications satellites like Starlink; space stations such as the ISS; scientific satellites like the Hubble; Earth observation satellites from companies like Planet Labs, Umbra, and HawkEye 360; GPS; miniature CubeSats for education and research; and military/defense satellites.

Loading next visibility...
Identifier
48320, 2021-036AW
Orbit
LEO
Country
Flag of USUS
Related business
Manufacturer
SpaceX/Seattle
Mission
Operational Commercial Communications
Bus & Motor
STARLINK, Unknown motor
Mass
260 kg wet, ~248 kg dry
Launch date (UTC)
2021-04-29 (5 years ago)
Launch vehicle
FALCON 9
Launch site
Air Force Eastern Test Range (AFETR)
Object type
Payload
Rocket body
Debris
Shape & HBR
Box + 1 Pan, 10.1 m
Radar Cross Section
13.562 m², Large (>1 m²)

Expand to show TLE details & history
Last TLE update: 10 hours ago

TLE from 10 hours ago
0 STARLINK-2029
1 48320U 21036AW  26036.27467211 -.00001436  00000-0 -77515-4 0  9991
2 48320  53.0540 247.1299 0001458  81.1886 278.9268 15.06404945263146
Epoch: 2026-02-05T06:35Z
TLE epoch observation values (Epoch: 2026-02-05T06:35:31.670Z)
Latitude
-0.00002°
Longitude
12.81868°
Altitude
547.919 km
Speed
7.589 km/s
True Right ascension
16h 28m 31s
True Declination
0° 00' 00"
Sunlit
Object was in daylight at epoch
Visualization orbit readout
Latitude
Unknown
Longitude
Unknown
Altitude
Unknown
Speed
Unknown
Apparent Right ascension
Unknown
Apparent Declination
Unknown
Sunlit
N/A
Visualization observer readout
Local Sidereal Time
18:28:03
Azimuth
Unknown
Elevation
Unknown
Doppler factor
Unknown
Orbital elements
Apogee altitude
548.477 km
Perigee altitude
546.457 km
Semi-major axis
6,925.604 km
Eccentricity
0.00015
Inclination
53.054°
RAAN
247.1299°
Arg. of periapsis
81.1886°
True anomaly
278.91029°
Mean anomaly
278.9268°
Eccentric anomaly
278.91855°
Mean motion
3.76579 °/min
Orbital period
95.6 mins
BSTAR
-0.000077515
Loading maneuver chart data...
Computing Atmospheric mass density...
Loading historical data...
Loading historical data...
Loading historical data...
Loading historical data...
Loading historical data...
Loading historical data...
Loading historical data...

Documentation

Showing up to 5 results
|